Temp
51 48 41 42 43 42 41 38 37 38 42 39 36 37 39 40 37 35 33 33 34 35 36 38 40 40 40 40 39 39 39 40 38 37 35 34 34 35 37 38 39 38 39 40
49 41 46 50 47 44 41 37 36 39 42 39 34 36 37 37 37 36 35 33 34 32 32 33 37 36 38 37 38 39 40 39 39 37 36 34 34 35 36 37 38 39 39 39
44 45 52 49 43 43 39 36 35 36 38 37 36 31 31 35 35 37 35 34 34 35 35 35 36 33 37 36 37 39 39 39 39 37 37 36 35 35 35 37 37 38 38 39
44 48 48 45 43 42 36 42 41 40 35 31 34 31 27 30 34 34 31 32 33 34 35 36 37 35 36 38 38 38 39 39 41 37 35 32 31 30 33 33 34 36 37 37
41 43 43 43 43 43 40 43 40 39 32 29 31 28 28 29 32 33 32 32 32 34 35 36 36 38 38 38 37 37 38 39 38 37 35 33 32 32 33 34 33 34 36 37
42 47 45 42 46 45 45 40 38 33 31 29 27 29 30 29 33 30 30 33 33 34 35 36 38 37 37 38 38 38 38 38 38 37 36 34 32 32 32 33 33 34 35 36
41 41 44 46 42 42 41 34 31 33 30 31 30 28 34 34 35 35 34 33 33 33 34 35 36 36 36 36 37 39 37 37 37 36 36 35 34 33 32 33 32 32 34 34
38 38 40 44 39 38 35 35 32 32 29 29 32 28 37 34 36 35 36 35 33 33 34 35 37 36 36 36 37 37 37 36 37 36 36 35 35 34 34 33 33 33 33 34
37 37 41 44 42 40 35 33 34 30 24 26 30 33 33 33 32 33 33 33 32 33 34 35 36 36 36 36 37 36 36 36 37 36 35 35 35 34 34 34 34 34 35 39
40 36 39 42 42 41 36 40 34 31 26 28 28 28 33 32 34 33 32 31 32 34 34 35 35 35 36 36 36 36 36 36 36 36 35 36 34 35 34 34 34 35 35 36
40 39 34 38 37 37 35 33 31 31 28 24 24 34 36 38 37 35 33 32 32 33 34 34 34 35 35 35 35 36 35 36 36 36 35 34 35 35 34 34 35 35 35 36
40 38 35 34 36 39 36 34 34 28 27 20 19 30 37 36 36 37 35 34 33 34 34 34 34 34 34 34 34 35 34 35 36 36 35 35 35 34 34 34 35 36 35 36
43 37 33 31 32 36 34 35 33 29 26 22 23 33 35 32 34 35 35 33 33 33 34 33 32 32 32 33 33 34 34 35 35 35 35 35 34 34 34 34 35 36 36 36
48 36 38 35 37 36 33 35 33 33 22 24 28 35 35 37 36 34 33 33 32 33 34 32 31 30 31 33 33 34 35 35 35 35 34 34 34 34 34 35 35 36 36 35
43 38 34 37 39 37 38 37 33 30 33 35 34 33 38 39 37 37 36 32 31 31 33 32 31 30 30 31 33 34 34 35 35 35 34 34 34 35 35 35 35 35 35 35
38 38 33 36 36 36 36 37 35 35 33 33 31 36 41 35 33 33 33 33 32 33 35 35 34 32 31 33 33 34 34 34 34 34 34 35 35 35 35 35 34 34 34 34
38 36 33 33 33 35 35 36 35 33 33 39 35 43 37 35 35 35 32 35 35 35 35 35 35 34 33 33 35 33 34 34 34 34 35 35 35 35 34 34 34 33 32 32
35 34 29 27 32 29 42 37 39 39 40 38 38 39 38 39 37 36 35 36 36 36 36 36 35 34 33 34 34 34 34 34 34 34 34 35 35 34 34 33 33 32 31 31
38 33 24 29 29 39 41 37 38 38 43 44 43 43 39 35 33 37 37 36 39 38 38 38 36 34 33 33 34 33 33 33 33 34 34 35 34 34 34 32 31 31 31 31
36 34 29 22 27 32 43 39 41 39 38 43 45 40 35 36 36 40 37 38 35 36 36 35 34 33 33 32 33 32 32 32 32 34 35 35 35 34 33 33 32 32 31 32
28 25 26 24 25 35 43 42 41 35 43 40 41 37 34 38 42 39 34 35 37 36 35 35 34 34 34 32 32 31 31 31 34 35 35 35 35 34 34 33 32 32 32 32
33 28 24 24 25 34 42 41 42 47 41 41 39 38 39 36 37 34 34 33 34 34 34 35 33 32 32 32 32 30 30 33 34 34 35 34 34 36 38 33 32 32 31 31
35 39 33 35 39 45 42 45 45 44 45 42 39 39 40 38 37 35 34 33 34 34 35 34 34 32 31 31 32 31 32 34 34 33 33 33 34 35 35 32 32 32 31 31
38 39 37 39 45 44 45 47 44 45 46 44 42 41 38 39 37 35 33 32 33 34 33 33 32 32 31 31 32 32 33 34 34 33 32 33 32 34 34 34 34 32 31 31
42 40 38 37 45 47 49 46 48 47 44 45 43 42 40 39 37 36 34 33 35 34 33 34 34 33 33 32 32 32 33 33 32 32 33 33 33 32 32 33 33 34 34 34
40 43 41 42 50 50 51 47 46 44 45 44 44 41 39 39 39 36 35 36 35 34 33 33 33 33 32 33 33 33 33 33 32 31 32 32 32 32 32 32 32 41 43 45
MSLP
1017.31 1018.20 1019.20 1019.60 1019.90 1020.19 1020.66 1021.22 1021.70 1022.06 1022.79 1023.67 1024.19 1024.67 1025.17 1025.99 1026.94 1027.76 1028.51 1028.84 1028.87 1028.84 1028.82 1028.87 1028.86 1028.99 1028.97 1028.90 1028.94 1028.74 1028.59 1028.28 1028.03 1027.81 1027.69 1027.40 1027.15 1026.54 1026.02 1025.66 1025.23 1024.89 1024.42 1023.86
1017.75 1018.44 1018.88 1019.16 1019.53 1019.89 1020.42 1020.95 1021.41 1022.01 1022.69 1023.66 1024.08 1024.50 1024.88 1025.77 1026.40 1027.18 1028.08 1028.59 1028.75 1028.82 1028.85 1028.93 1029.00 1029.02 1029.04 1029.13 1028.97 1028.76 1028.59 1028.32 1028.06 1027.94 1027.80 1027.65 1027.26 1026.72 1026.38 1025.87 1025.27 1024.69 1024.30 1023.75
1018.05 1018.65 1018.77 1019.06 1019.52 1019.85 1020.42 1020.87 1021.38 1022.16 1022.76 1023.48 1023.92 1024.24 1024.88 1025.59 1026.22 1027.00 1027.65 1028.20 1028.52 1028.79 1028.82 1028.94 1028.95 1028.88 1028.90 1029.05 1029.07 1028.84 1028.56 1028.28 1028.06 1027.99 1027.74 1027.36 1027.04 1026.70 1026.40 1025.84 1025.36 1024.81 1024.34 1023.77
1018.41 1018.63 1018.86 1019.23 1019.61 1019.99 1020.60 1021.03 1021.55 1022.18 1023.01 1023.80 1024.15 1024.87 1024.73 1025.43 1026.17 1026.96 1027.71 1028.13 1028.50 1028.66 1028.77 1028.82 1028.91 1028.87 1028.88 1028.93 1028.89 1028.71 1028.46 1028.24 1027.88 1027.91 1027.84 1027.85 1027.84 1027.54 1026.88 1026.36 1025.82 1025.10 1024.36 1023.88
1018.84 1018.97 1019.14 1019.49 1019.88 1020.17 1020.97 1021.29 1021.92 1022.43 1023.23 1023.98 1024.47 1025.35 1024.46 1025.26 1026.01 1026.45 1027.32 1028.01 1028.48 1028.62 1028.78 1028.80 1028.76 1028.78 1028.84 1028.80 1028.65 1028.53 1028.40 1028.22 1028.05 1027.93 1027.83 1027.85 1027.81 1027.43 1026.94 1026.36 1025.87 1025.21 1024.44 1023.77
1019.11 1019.34 1019.50 1019.73 1020.16 1020.56 1021.16 1021.74 1022.44 1023.07 1023.63 1024.23 1024.36 1025.10 1024.13 1024.87 1024.88 1025.53 1026.55 1027.52 1028.30 1028.50 1028.60 1028.64 1028.56 1028.69 1028.69 1028.67 1028.65 1028.61 1028.44 1028.25 1028.08 1027.94 1027.88 1027.88 1027.79 1027.45 1027.03 1026.50 1026.07 1025.46 1024.76 1024.04
1019.47 1019.68 1019.87 1019.98 1020.45 1021.01 1021.47 1022.22 1022.97 1023.59 1023.80 1024.27 1024.28 1024.84 1023.12 1023.34 1024.18 1024.96 1025.95 1027.13 1027.83 1027.95 1028.48 1028.60 1028.46 1028.68 1028.69 1028.77 1028.62 1028.33 1028.25 1028.14 1027.97 1027.92 1027.81 1027.67 1027.54 1027.36 1027.11 1026.70 1026.30 1025.78 1025.15 1024.38
1019.78 1020.00 1020.16 1020.44 1020.69 1021.06 1021.78 1022.41 1023.30 1024.08 1024.69 1024.54 1024.14 1023.67 1022.48 1023.10 1023.85 1024.72 1025.36 1026.63 1027.46 1027.97 1028.20 1028.22 1028.31 1028.51 1028.60 1028.37 1028.36 1028.21 1028.20 1028.22 1028.04 1027.86 1027.73 1027.57 1027.41 1027.22 1026.92 1026.57 1026.13 1025.65 1025.16 1024.51
1019.54 1020.03 1020.52 1020.70 1021.02 1021.50 1022.24 1022.80 1023.27 1024.07 1025.17 1025.09 1023.59 1022.62 1022.40 1023.15 1024.10 1025.06 1025.80 1026.87 1027.28 1027.72 1027.89 1028.17 1028.22 1028.35 1028.44 1028.43 1028.38 1028.37 1028.29 1028.10 1027.81 1027.65 1027.42 1027.37 1027.24 1027.07 1026.77 1026.17 1025.72 1025.41 1024.86 1024.14
1019.17 1019.84 1020.74 1021.14 1021.35 1021.91 1022.16 1023.00 1023.74 1024.57 1025.49 1025.54 1023.82 1023.14 1022.63 1022.82 1023.66 1024.92 1025.76 1026.62 1026.97 1027.36 1027.58 1027.78 1027.87 1028.12 1028.15 1028.11 1028.16 1028.03 1028.01 1027.95 1027.66 1027.43 1027.47 1027.25 1026.98 1026.73 1026.32 1026.01 1025.70 1025.16 1024.63 1024.11
1019.07 1019.71 1021.15 1021.55 1021.50 1021.72 1022.82 1023.35 1024.59 1025.35 1026.13 1026.34 1025.32 1022.60 1020.68 1021.31 1022.31 1023.62 1024.63 1025.72 1026.21 1026.83 1027.10 1027.50 1027.74 1027.93 1028.07 1028.01 1027.94 1027.92 1027.97 1027.87 1027.60 1027.60 1027.34 1027.20 1026.98 1026.52 1026.19 1025.83 1025.46 1024.86 1024.38 1024.08
1019.38 1020.06 1020.69 1021.21 1021.62 1021.72 1022.09 1022.90 1023.82 1025.69 1026.94 1027.19 1026.24 1022.01 1020.25 1020.92 1021.75 1022.71 1023.93 1024.74 1025.55 1026.15 1026.62 1027.03 1027.53 1027.91 1027.99 1027.81 1027.97 1028.00 1027.92 1027.85 1027.49 1027.35 1027.05 1026.90 1026.53 1026.23 1026.06 1025.55 1025.19 1024.68 1024.34 1023.84
1019.54 1020.40 1020.85 1021.08 1021.96 1022.05 1022.22 1022.83 1023.79 1025.01 1025.89 1026.45 1025.97 1021.52 1020.56 1020.97 1021.72 1022.47 1023.54 1024.24 1025.08 1025.76 1026.27 1026.85 1027.29 1027.58 1027.82 1027.56 1027.68 1027.84 1027.80 1027.51 1027.11 1026.97 1026.82 1026.61 1026.40 1026.19 1025.88 1025.64 1025.21 1024.48 1024.08 1023.71
1019.51 1020.43 1020.58 1020.48 1020.39 1020.98 1022.02 1022.60 1023.55 1024.14 1025.42 1025.28 1023.12 1020.86 1020.37 1020.65 1021.34 1022.21 1023.17 1023.70 1024.52 1025.22 1025.74 1026.44 1026.84 1027.16 1027.29 1027.22 1027.24 1027.50 1027.37 1027.10 1026.81 1026.70 1026.54 1026.37 1026.23 1025.87 1025.80 1025.33 1024.94 1024.54 1024.14 1023.88
1020.25 1020.67 1020.78 1020.09 1019.92 1020.25 1020.78 1021.59 1022.63 1023.27 1022.68 1022.76 1020.79 1020.54 1018.55 1019.25 1020.11 1020.86 1021.86 1023.11 1024.02 1024.72 1025.20 1025.65 1026.14 1026.59 1026.88 1027.01 1027.00 1027.09 1026.94 1026.75 1026.52 1026.56 1026.51 1026.41 1026.19 1025.86 1025.59 1025.09 1024.77 1024.57 1023.99 1023.78
1021.05 1021.03 1021.02 1020.47 1019.84 1020.10 1020.17 1020.33 1021.15 1021.62 1021.62 1021.00 1020.28 1019.02 1017.43 1018.09 1019.20 1020.35 1021.30 1022.29 1023.07 1023.52 1024.02 1024.54 1025.27 1025.87 1026.21 1026.32 1026.33 1026.66 1026.72 1026.60 1026.49 1026.49 1026.41 1026.19 1026.14 1025.75 1025.33 1025.04 1024.86 1024.61 1024.14 1023.88
1021.70 1021.68 1022.01 1021.15 1020.30 1019.81 1019.13 1017.62 1018.76 1019.42 1019.18 1018.96 1019.03 1016.66 1017.19 1017.99 1018.66 1019.30 1020.43 1021.00 1021.51 1022.06 1022.79 1023.44 1024.08 1024.77 1025.24 1025.54 1025.79 1026.14 1026.52 1026.58 1026.53 1026.45 1026.33 1026.19 1025.97 1025.64 1025.48 1025.17 1024.93 1024.75 1024.25 1024.00
1021.77 1022.46 1022.43 1022.21 1020.76 1019.39 1016.08 1016.20 1016.59 1017.18 1016.74 1016.88 1016.33 1015.98 1016.45 1016.92 1017.42 1018.06 1018.89 1019.42 1020.18 1020.89 1021.66 1022.39 1023.09 1023.90 1024.46 1024.88 1025.33 1025.63 1025.90 1026.16 1026.29 1026.25 1026.16 1026.06 1025.91 1025.69 1025.53 1025.28 1025.08 1024.86 1024.41 1024.16
1021.38 1022.43 1023.18 1022.89 1021.46 1018.33 1015.49 1015.83 1016.10 1016.47 1014.59 1013.80 1014.62 1015.34 1016.20 1017.05 1017.54 1017.44 1017.43 1018.12 1018.52 1019.28 1020.26 1021.24 1021.96 1022.93 1023.82 1024.43 1024.83 1025.26 1025.61 1025.68 1025.86 1026.01 1026.01 1025.94 1025.90 1025.79 1025.63 1025.37 1025.10 1024.83 1024.64 1024.23
1022.30 1022.39 1022.99 1023.53 1021.74 1018.94 1015.47 1014.93 1015.04 1015.39 1014.05 1012.24 1013.47 1014.78 1016.19 1017.14 1017.76 1016.21 1016.12 1017.08 1018.20 1018.87 1019.63 1020.60 1021.59 1022.46 1023.36 1024.02 1024.48 1024.88 1025.13 1025.28 1025.24 1025.34 1025.50 1025.46 1025.35 1025.37 1025.30 1025.17 1024.98 1024.75 1024.61 1024.23
1022.45 1023.30 1023.10 1022.68 1020.90 1017.48 1014.88 1014.73 1015.28 1015.03 1013.44 1012.38 1013.25 1014.60 1015.97 1016.49 1015.57 1015.69 1015.93 1016.99 1017.68 1018.49 1019.31 1020.19 1021.20 1021.96 1022.62 1023.49 1024.19 1024.63 1024.80 1024.80 1024.66 1024.82 1024.79 1024.62 1024.47 1024.46 1024.39 1024.41 1024.37 1024.26 1024.20 1023.93
1020.51 1021.65 1022.29 1022.15 1020.25 1017.01 1014.48 1015.18 1015.04 1012.84 1012.22 1012.46 1013.20 1014.07 1014.99 1015.17 1015.55 1016.00 1016.49 1017.14 1017.77 1018.43 1019.39 1019.94 1020.84 1021.66 1022.22 1022.94 1023.67 1024.22 1024.49 1024.28 1024.37 1024.40 1024.40 1024.26 1024.04 1023.95 1023.80 1023.84 1023.75 1023.68 1023.79 1023.73
1019.20 1018.08 1018.58 1018.43 1016.16 1014.05 1013.78 1013.01 1012.29 1012.57 1012.73 1012.59 1013.18 1013.71 1014.34 1015.11 1015.73 1016.24 1016.72 1017.28 1017.72 1018.15 1018.99 1019.80 1020.35 1021.32 1021.94 1022.45 1023.00 1023.61 1023.60 1023.98 1024.12 1024.21 1024.14 1023.97 1023.82 1023.73 1023.55 1023.50 1023.38 1023.35 1023.34 1023.40
1017.42 1016.96 1017.07 1016.82 1013.74 1013.29 1012.97 1012.58 1012.36 1012.32 1012.25 1012.30 1012.72 1013.26 1014.07 1014.38 1015.01 1015.85 1016.60 1017.29 1017.74 1018.13 1018.60 1019.39 1020.36 1020.94 1021.51 1021.99 1022.46 1022.69 1023.09 1023.46 1023.78 1023.94 1024.02 1023.95 1023.98 1023.76 1023.65 1023.53 1023.42 1023.37 1023.17 1023.03
1016.44 1016.23 1015.53 1014.93 1013.34 1012.36 1011.66 1011.52 1011.43 1011.46 1011.79 1012.07 1012.53 1012.93 1013.30 1014.13 1014.71 1015.08 1015.85 1016.66 1017.19 1017.79 1018.35 1018.88 1019.55 1020.27 1020.75 1021.23 1021.75 1022.19 1022.59 1022.97 1023.38 1023.55 1023.63 1023.64 1023.66 1023.71 1023.53 1023.34 1023.26 1023.07 1022.73 1022.69
1015.26 1014.16 1013.82 1012.62 1011.70 1011.70 1011.06 1010.66 1010.75 1011.19 1011.32 1011.35 1012.04 1012.65 1013.03 1013.51 1013.97 1014.77 1015.23 1015.66 1016.35 1017.12 1017.82 1018.48 1019.00 1019.56 1020.06 1020.61 1021.03 1021.40 1021.88 1022.43 1022.90 1023.12 1023.18 1023.21 1023.25 1023.22 1023.26 1023.21 1022.75 1022.16 1022.12 1022.02
Wind_Speed
4 6 0 4 5 2 2 2 3 2 4 5 7 6 6 7 5 7 6 6 6 6 3 2 1 4 5 3 6 5 6 6 3 2 3 3 3 3 4 4 7 7 6 8
6 0 2 4 3 1 2 2 3 1 2 5 1 8 5 6 6 7 9 8 7 3 3 2 1 3 2 4 5 6 6 5 3 2 2 2 3 4 3 4 6 7 8 8
5 1 3 2 2 1 1 2 2 2 1 1 6 5 1 1 2 4 4 5 5 6 6 4 3 2 2 4 5 5 6 5 4 5 3 4 3 3 3 6 5 7 7 8
3 0 2 1 1 3 2 1 1 1 4 3 3 6 2 2 5 4 6 7 7 6 4 3 2 3 3 3 4 4 5 4 4 5 3 4 2 3 3 3 4 6 7 7
1 2 1 1 1 1 1 2 2 2 3 3 1 3 5 1 6 9 9 9 7 7 6 6 5 4 2 2 3 3 4 4 4 4 2 3 4 3 3 4 7 6 7 7
2 1 1 2 2 3 3 3 5 4 3 3 0 3 6 5 7 2 5 8 8 7 7 6 5 2 2 2 3 3 4 3 5 4 4 4 5 6 5 5 5 5 5 5
1 0 0 1 3 2 4 5 5 4 5 5 2 2 10 4 6 5 9 9 9 8 6 6 6 4 2 3 3 2 3 4 4 4 4 5 5 5 6 6 4 6 5 4
4 4 2 1 1 4 2 5 6 3 2 6 0 6 4 1 3 2 6 7 7 7 7 7 6 4 2 1 1 1 3 4 5 5 5 5 5 3 4 4 4 4 3 5
4 2 1 2 1 1 3 2 3 7 1 2 3 7 2 2 3 3 6 6 8 8 7 7 6 5 3 3 3 2 3 3 4 4 4 5 5 5 5 6 4 4 5 5
3 0 0 1 2 4 1 5 3 4 1 4 6 6 7 6 9 8 8 10 9 7 7 7 6 6 4 4 3 2 2 3 4 4 3 3 5 4 5 5 6 6 6 6
4 3 0 1 5 8 2 1 6 5 3 6 3 9 7 8 9 13 12 10 10 9 8 7 6 5 4 3 3 3 2 3 4 4 4 4 5 5 5 5 5 6 6 6
2 5 3 2 2 0 1 4 5 7 4 2 4 11 3 6 5 8 9 10 9 8 8 7 7 6 6 5 3 3 2 3 4 4 4 4 4 4 5 6 6 6 6 6
5 1 2 2 2 3 4 4 4 6 4 7 7 10 2 3 4 7 9 9 8 9 8 7 7 7 6 6 5 4 3 4 4 3 4 4 5 4 5 6 6 6 6 6
4 3 6 8 5 5 4 5 5 6 5 6 10 9 6 8 9 8 8 8 9 9 9 8 7 7 7 6 6 5 5 4 5 4 4 4 4 5 5 6 6 6 6 6
4 4 4 6 7 5 5 6 10 11 7 9 5 11 7 9 13 14 12 8 9 10 10 10 9 7 7 6 6 6 6 5 4 4 4 5 5 5 5 6 6 5 6 5
2 2 3 5 1 5 6 10 12 11 4 13 3 16 10 4 5 8 12 12 12 12 12 11 10 8 8 8 7 6 6 6 3 3 4 4 5 5 6 6 6 6 6 6
4 5 3 6 4 6 8 11 13 7 6 10 11 14 6 5 8 10 11 16 17 15 14 13 13 11 9 9 7 7 6 3 4 4 4 4 5 5 6 6 6 6 6 5
7 5 2 4 4 3 8 2 5 12 8 17 8 7 7 5 5 6 9 16 16 14 13 12 10 9 8 7 7 5 5 5 5 4 4 4 4 5 5 5 5 5 4 5
3 5 2 3 4 9 5 4 7 8 11 21 23 11 6 3 1 8 11 12 18 16 13 11 10 7 7 8 7 6 6 6 4 5 4 4 4 5 5 5 5 4 4 4
5 6 6 2 4 6 6 1 4 4 9 3 16 8 9 7 1 7 9 13 10 10 10 10 10 7 8 7 7 7 7 6 6 6 5 4 4 4 5 5 5 3 3 4
3 3 6 2 4 11 7 5 4 2 10 1 7 7 10 8 7 1 5 7 9 9 11 9 10 12 10 8 7 7 6 8 6 5 5 5 5 6 6 5 3 3 4 5
9 9 5 3 2 10 7 5 8 6 3 1 4 7 12 4 4 2 5 7 10 11 9 11 10 9 8 8 8 7 8 6 5 5 5 6 6 4 4 5 4 4 4 5
4 9 8 12 10 3 8 8 5 2 3 3 3 6 8 8 7 6 6 8 10 11 10 8 11 9 7 8 9 8 6 6 6 5 6 6 5 5 5 4 5 3 3 3
5 4 4 2 6 10 11 9 8 6 8 3 5 6 8 9 10 8 7 7 9 9 10 9 9 10 10 8 8 8 6 6 5 6 6 5 5 5 4 4 4 3 4 4
3 6 6 6 10 9 10 9 9 8 8 7 4 7 10 8 8 9 9 10 10 10 9 10 11 10 10 9 9 7 7 6 6 5 5 5 4 4 5 4 4 4 4 5
6 7 6 7 8 3 8 3 2 4 8 10 10 6 6 10 10 9 9 10 11 11 10 10 10 9 9 9 9 8 7 7 6 5 4 4 4 4 3 3 5 7 10 11
Wind_Direction
7 64 259 203 172 152 130 187 240 221 166 154 216 271 221 192 170 183 185 202 221 214 191 136 54 345 342 359 350 346 337 337 360 332 332 324 318 314 327 333 325 323 319 323
24 36 183 122 117 151 169 231 265 340 134 173 173 256 255 177 211 183 186 206 218 207 201 217 292 354 350 313 318 336 340 343 338 336 316 283 290 296 286 304 314 332 334 321
150 169 146 130 79 84 162 202 238 246 37 208 331 295 299 212 144 142 187 193 202 201 211 224 256 319 322 321 322 333 329 338 338 351 336 333 332 318 325 341 330 325 315 321
118 60 167 127 110 121 315 91 97 97 52 275 29 288 288 248 234 212 201 199 208 208 185 210 239 295 303 299 320 329 335 349 348 354 5 3 323 311 286 285 300 315 318 316
258 153 158 164 142 158 200 58 60 67 92 32 1 71 261 327 262 232 215 218 220 220 204 219 232 249 293 322 324 324 335 2 353 357 349 353 337 285 292 311 328 320 321 327
95 352 56 119 88 81 132 75 49 56 76 7 146 117 275 200 213 255 187 209 203 208 213 225 236 230 259 323 4 1 1 341 353 351 347 354 331 323 328 329 331 326 321 315
27 204 49 89 102 62 76 55 342 351 10 233 140 50 245 237 222 215 196 192 195 204 199 212 221 220 245 2 348 324 1 332 333 335 346 344 328 324 319 321 318 328 327 319
180 295 165 345 99 159 129 135 147 280 298 285 315 245 257 241 129 73 172 164 174 195 202 213 209 192 215 267 277 296 340 333 335 335 319 330 329 315 306 308 315 308 297 304
148 258 6 54 122 98 157 112 165 103 24 6 250 288 269 106 172 151 168 159 195 202 206 212 203 187 197 239 259 288 315 312 318 326 313 317 329 334 320 314 300 303 306 319
171 61 275 167 114 31 138 151 75 22 110 294 292 281 248 231 224 210 211 206 211 209 205 204 202 198 209 223 235 249 266 278 292 308 323 313 308 314 310 316 323 314 310 324
133 119 272 16 205 174 107 100 53 113 110 165 306 275 209 206 198 198 213 204 202 203 200 198 203 205 202 220 230 251 296 306 316 328 318 325 327 321 326 315 314 308 307 326
192 138 188 221 315 66 164 171 145 117 228 60 142 272 190 213 206 193 200 203 199 201 195 193 193 193 202 220 232 237 265 286 292 297 297 304 304 318 327 319 314 315 315 317
187 320 8 321 357 345 221 189 111 102 90 199 137 262 199 248 226 213 185 201 192 194 194 192 186 202 207 218 224 224 255 265 271 278 294 305 311 322 311 309 315 316 316 318
101 149 179 195 207 133 198 184 178 137 127 184 226 278 207 225 218 202 202 199 191 190 191 190 198 207 211 216 217 217 241 241 262 275 283 292 304 303 305 302 307 318 324 329
130 207 184 249 236 185 218 188 182 200 192 181 242 210 238 207 206 206 192 183 187 198 195 196 202 203 211 215 222 225 236 244 240 264 288 296 303 304 308 311 319 324 323 329
347 222 156 284 143 204 254 229 204 219 236 267 299 278 206 208 118 164 183 183 198 203 202 197 199 198 203 206 213 218 229 243 240 260 274 303 318 316 312 316 328 331 327 338
156 143 108 265 353 313 292 230 187 189 209 185 203 231 167 200 212 209 193 192 200 201 199 195 197 198 196 201 196 210 220 249 258 271 295 313 318 315 320 321 332 337 327 327
139 116 99 237 4 275 246 128 176 204 227 216 261 214 192 199 212 220 198 192 201 196 194 195 189 189 193 188 192 198 206 221 244 268 292 307 315 312 320 328 334 330 325 327
88 118 80 146 199 291 281 209 162 173 279 207 221 213 187 124 72 274 200 197 201 194 189 190 181 173 171 180 187 190 204 213 218 250 276 296 307 305 316 319 319 307 313 314
68 73 119 105 154 235 242 211 186 178 295 231 201 183 156 141 205 250 188 182 186 179 170 163 165 157 165 188 174 184 207 208 218 214 237 270 271 267 276 284 295 283 295 292
85 24 173 180 242 287 243 145 162 105 241 24 179 154 154 192 201 207 141 163 171 172 167 147 159 175 183 165 169 198 207 220 218 210 220 239 237 236 238 250 238 260 288 305
167 153 192 93 105 279 144 97 179 228 305 282 178 183 196 212 179 164 178 161 160 161 162 162 163 175 173 166 170 200 216 220 212 218 241 251 241 237 237 236 259 260 271 295
233 186 183 182 210 257 215 218 225 220 271 250 214 208 189 184 202 184 192 178 174 168 163 169 168 169 176 177 181 193 219 201 211 225 243 251 250 250 241 240 256 266 248 270
242 161 217 96 249 240 233 261 242 213 221 231 227 186 182 193 181 189 178 181 175 173 172 161 160 179 186 186 190 203 186 194 199 224 249 264 263 269 269 278 276 270 272 271
195 146 183 260 284 282 259 230 250 255 231 230 207 200 209 191 200 182 182 185 186 178 170 171 180 189 195 182 193 190 190 181 203 223 238 254 255 267 279 270 262 260 261 238
193 188 179 226 233 191 262 291 224 247 245 229 204 218 215 195 197 181 195 186 179 180 172 180 187 184 186 186 193 187 181 179 190 217 227 234 242 253 261 285 298 289 278 285